Presure
293 277 278 298 293 276 269 233 228 225 321 295 271 258 251 230 230 217 215 207 206 208 194 196 204 194 210 187 208 201 211 219 199 230 219 219 206 202 218 222 219 216 230 230 234 237 249
302 324 297 298 97 272 264 242 229 223 281 294 271 255 251 135 177 225 218 218 214 211 206 199 194 205 214 198 198 203 204 214 213 224 218 213 212 208 210 208 229 232 249 262 224 281 238
301 325 300 290 284 267 263 245 227 217 244 288 279 267 245 242 232 225 222 217 216 210 209 207 194 194 205 211 197 215 225 212 217 227 224 215 205 205 199 210 235 236 236 279 273 280 275
346 319 304 296 281 259 255 252 228 221 218 254 289 265 258 241 238 229 217 218 217 216 206 198 208 207 218 197 217 211 198 209 210 205 224 221 223 196 201 214 207 216 275 271 273 263 274
324 316 305 301 283 275 256 248 247 222 216 221 255 269 265 242 216 168 231 126 218 217 220 215 210 213 212 216 207 208 203 210 225 204 216 222 223 212 197 201 211 274 268 260 255 255 261
313 310 296 298 301 279 267 254 250 241 218 206 219 239 259 256 252 238 231 230 186 142 151 223 216 215 213 219 225 228 213 211 224 202 220 229 234 206 204 212 227 256 259 253 206 249 259
283 274 266 268 282 298 279 263 262 249 218 221 204 213 228 250 273 261 241 239 229 221 214 213 213 216 215 220 226 230 224 216 214 218 216 234 226 198 206 218 230 264 254 245 242 242 248
264 256 262 231 235 265 280 279 275 263 258 241 223 217 206 213 227 273 282 251 240 237 234 230 228 226 219 222 224 232 214 221 224 220 221 223 212 210 210 220 227 266 246 235 236 241 244
242 242 256 255 260 224 227 220 246 254 253 265 240 224 216 205 211 180 208 216 259 260 249 280 267 233 237 231 224 229 232 224 213 224 212 231 220 210 208 224 233 256 244 234 237 241 249
233 237 242 234 222 217 240 231 248 217 214 254 262 241 231 217 205 216 217 215 212 195 222 207 220 247 275 260 233 243 243 234 232 216 232 226 209 207 217 229 237 256 242 234 238 241 245
235 239 265 530 314 290 262 250 245 228 247 235 243 238 217 233 217 203 207 198 195 199 191 209 210 244 284 277 258 243 239 244 225 225 224 214 208 222 234 232 255 256 241 228 182 234 238
240 363 500 486 483 495 488 502 269 250 247 228 226 222 222 224 230 237 222 198 197 210 201 215 226 254 275 265 244 237 247 247 231 223 216 220 231 237 244 251 243 231 229 232 229 241 260
409 482 485 597 552 515 558 543 497 270 255 244 245 233 228 225 214 225 204 208 219 211 199 206 239 277 266 252 240 244 236 230 234 220 230 240 246 229 240 233 238 244 241 247 251 251 285
477 468 635 550 531 536 519 530 489 486 383 266 251 244 238 235 231 232 215 212 226 218 224 226 251 273 243 246 243 237 235 216 226 240 253 235 246 256 248 187 343 337 330 331 340 345 274
454 613 575 527 469 451 439 542 463 443 383 373 304 263 246 227 233 237 235 233 227 225 241 235 298 259 245 239 231 234 223 241 234 237 259 321 403 373 339 343 343 336 341 333 336 334 335
461 614 509 463 439 429 439 529 460 425 366 355 343 341 259 245 237 171 236 232 229 231 257 295 268 239 234 236 216 238 210 239 323 309 195 279 358 353 346 351 244 339 234 330 337 339 372
602 612 484 462 445 460 502 416 453 370 355 330 348 343 321 275 250 243 238 234 239 269 294 264 235 232 226 223 246 231 302 356 360 347 348 331 327 327 348 332 339 356 393 374 363 413 362
588 511 495 469 465 477 434 472 517 378 374 321 302 299 319 318 278 266 267 264 271 288 257 235 229 212 227 240 240 296 335 344 321 351 335 337 321 317 333 344 93 362 398 403 412 271 270
601 514 502 474 459 398 393 355 348 346 344 316 302 290 303 333 360 326 310 294 277 252 236 228 209 227 236 225 365 308 321 322 276 269 271 273 276 272 270 281 296 300 290 276 259 247 252
607 623 472 458 372 361 359 351 337 327 309 319 307 312 276 341 311 308 301 281 247 235 225 209 227 221 218 366 284 244 260 254 261 261 248 247 248 259 264 258 260 259 267 257 254 241 257
616 528 448 383 361 352 341 328 330 321 322 340 329 330 221 303 301 285 282 245 236 226 211 225 234 213 219 205 239 212 183 250 249 245 244 240 245 206 123 232 249 235 256 246 245 262 252
624 403 399 375 358 340 329 323 310 312 329 333 318 314 259 279 282 265 243 237 225 216 219 229 207 211 217 244 244 181 179 183 248 241 245 237 107 238 230 234 236 234 249 253 258 243 239
626 474 372 360 339 325 304 315 318 299 317 308 303 287 281 282 251 218 226 225 215 220 227 235 206 213 235 239 186 244 187 178 209 134 128 249 204 231 189 230 233 234 236 236 211 242 274
626 509 375 348 339 324 319 304 293 307 303 300 289 285 275 248 242 177 228 214 215 221 231 218 211 215 222 240 233 203 180 224 191 243 244 221 173 240 206 232 202 242 177 205 192 175 126
629 416 373 322 338 325 304 302 305 300 315 288 290 276 249 242 240 221 216 210 218 231 230 208 214 192 217 212 202 186 228 215 223 221 258 183 174 160 195 175 233 182 216 221 242 190 236
637 354 353 331 336 324 315 314 300 318 293 292 277 253 244 233 231 218 211 223 229 237 235 204 217 212 197 217 211 223 258 175 261 217 172 192 159 179 187 194 213 243 234 206 231 248 232
638 383 387 312 319 319 308 302 319 295 287 290 255 244 235 239 225 207 205 225 230 234 211 207 216 214 246 209 212 192 200 187 215 257 198 232 198 251 239 261 195 213 252 206 211 231 225
633 521 381 315 321 303 310 310 300 287 292 273 245 238 238 232 197 216 214 223 233 231 237 201 216 213 215 221 211 208 209 175 219 209 230 257 205 242 258 238 263 199 214 186 214 227 252
630 615 378 352 313 324 308 324 293 124 182 255 244 240 231 228 215 221 212 228 234 229 227 202 223 212 214 213 223 221 225 223 199 201 223 225 238 236 238 240 214 217 219 209 237 245 174
Wind_Speed
66 58 52 45 42 42 44 61 56 53 51 55 59 63 67 70 74 72 72 69 65 64 64 63 67 67 63 68 61 64 59 57 60 51 58 60 59 58 55 56 58 56 59 61 66 69 72
72 52 48 40 31 41 44 55 54 51 39 53 60 60 66 43 54 72 72 73 71 67 66 65 67 70 66 67 66 65 64 61 59 56 60 61 61 57 56 59 57 55 55 55 66 49 73
53 43 43 39 41 41 43 51 55 54 40 51 58 61 59 65 69 70 70 71 71 67 68 67 68 68 69 66 67 65 68 63 61 59 61 61 63 60 60 60 56 56 57 51 54 54 62
40 40 41 38 39 43 44 48 55 55 49 35 59 57 61 61 64 70 67 69 70 69 66 66 72 74 77 70 70 69 67 63 62 64 62 60 62 61 63 61 61 59 53 53 49 57 53
37 38 39 39 41 44 46 48 49 56 54 47 35 53 60 60 60 50 72 33 73 69 69 70 69 71 73 78 70 72 68 69 65 63 64 63 62 61 62 61 62 51 52 53 52 54 59
29 32 34 38 42 44 47 50 50 54 57 55 49 41 51 58 67 66 69 70 53 38 43 71 67 70 73 78 76 71 73 72 68 62 62 62 61 61 63 67 60 50 52 54 64 61 61
36 38 39 40 40 44 50 51 54 54 58 59 54 51 45 44 62 69 65 67 65 63 64 67 66 71 75 77 74 72 73 76 66 65 66 62 61 66 71 66 60 50 50 50 53 57 61
43 45 46 46 42 46 49 53 59 57 58 59 60 59 56 52 45 53 73 67 58 60 64 65 72 75 76 77 78 76 74 74 71 68 67 63 61 69 70 67 65 56 54 53 60 65 64
57 54 56 57 57 51 51 51 51 57 58 60 62 62 60 57 55 49 50 48 55 55 56 68 71 72 79 80 80 81 76 74 69 68 64 65 65 69 69 71 70 60 58 62 64 70 65
51 54 58 59 61 62 58 56 57 59 57 61 62 63 62 61 58 56 54 51 49 48 45 54 57 63 73 81 74 80 79 77 73 65 69 62 70 70 72 73 75 65 69 68 69 71 65
60 62 78 52 76 76 76 71 63 61 61 60 59 62 56 60 61 61 57 54 45 51 41 54 60 62 61 62 67 73 73 74 71 70 66 66 71 75 75 79 81 72 74 69 56 69 70
69 77 51 48 45 45 43 42 80 70 67 65 61 61 60 57 60 59 58 53 49 47 51 53 57 56 52 55 64 68 69 69 69 67 66 72 76 80 82 88 77 73 76 73 70 77 69
72 53 48 19 21 32 16 25 44 81 78 71 66 64 62 62 64 59 60 54 51 54 56 57 52 47 45 55 61 63 67 67 69 67 72 79 83 71 81 80 85 88 87 89 87 79 67
54 50 25 14 10 10 20 22 41 48 64 85 76 73 66 64 63 59 61 59 47 52 56 51 50 42 51 54 55 61 63 59 67 75 81 74 79 84 85 36 72 72 78 80 75 73 50
54 41 8 7 5 6 15 21 39 53 63 63 89 86 71 65 63 60 56 48 48 53 56 46 33 41 47 51 52 55 56 66 64 69 80 63 21 29 42 46 59 62 65 59 65 64 64
53 32 8 4 6 19 19 13 37 52 55 61 68 70 79 74 65 36 50 41 51 55 45 35 33 40 44 47 43 52 45 60 47 9 5 4 1 6 15 22 30 51 35 63 62 53 45
39 25 10 12 16 12 6 28 40 63 64 54 56 52 70 78 74 56 47 50 55 44 32 26 39 35 41 40 45 46 63 8 4 6 16 9 11 17 19 8 11 18 37 57 48 43 47
36 7 17 14 14 17 36 34 29 56 53 47 47 45 49 62 69 61 57 54 43 32 29 36 32 32 34 35 39 50 9 6 5 8 20 21 24 10 17 13 21 16 24 38 43 60 60
34 11 15 11 22 44 57 50 53 53 48 49 54 51 52 39 39 45 53 45 36 36 33 29 28 25 27 25 5 35 29 27 66 62 62 60 64 61 60 57 59 62 65 73 70 64 63
33 25 8 17 44 46 52 53 52 54 52 52 52 49 37 37 35 41 42 40 42 36 32 29 17 17 9 4 47 4 29 45 58 63 57 60 56 64 63 48 51 52 53 60 62 57 46
34 15 21 37 44 44 47 42 45 45 46 37 44 35 23 31 40 47 44 48 40 35 29 17 13 8 7 2 19 21 15 48 51 54 55 52 64 42 15 41 53 37 41 45 52 37 49
33 5 14 49 45 43 43 44 43 39 42 33 39 39 34 51 50 52 53 43 37 32 20 14 15 7 5 11 20 11 10 15 47 43 56 48 15 54 47 51 52 40 41 30 31 46 52
31 11 38 41 40 48 42 43 44 42 42 43 47 55 57 58 59 44 41 42 37 26 17 16 16 8 1 8 18 15 12 11 23 28 31 53 40 45 32 43 47 49 44 38 38 35 20
30 11 37 29 43 45 49 42 37 40 47 49 58 62 62 61 56 26 45 38 31 25 20 21 16 10 8 6 6 8 9 13 23 38 47 22 24 47 35 44 36 52 26 39 36 29 15
28 39 33 27 42 47 45 45 44 46 43 60 62 65 63 60 52 42 41 34 30 24 24 24 19 21 10 14 17 18 13 24 22 35 46 27 21 13 20 27 47 27 27 38 49 28 53
25 11 20 34 50 48 49 50 50 48 61 63 69 65 60 52 50 44 38 36 29 26 25 28 21 20 15 14 18 15 20 20 35 8 11 23 12 18 25 20 14 46 41 21 37 45 36
23 29 45 34 45 49 48 48 53 62 63 69 69 66 59 58 50 36 30 35 30 27 33 28 24 22 16 18 18 22 25 24 17 25 18 16 20 22 32 39 26 12 42 20 24 27 36
22 18 50 35 49 45 52 52 63 63 68 72 67 61 61 56 32 43 37 34 32 31 29 30 26 22 19 15 17 16 17 17 20 14 11 23 20 18 28 30 27 29 22 26 27 33 37
22 16 52 48 49 58 51 52 62 14 26 70 66 63 57 54 45 44 34 36 37 33 31 32 28 26 20 18 14 15 14 12 19 22 10 13 14 15 18 22 21 24 26 30 33 37 39
Wind_Direction
296 292 287 277 263 263 253 258 261 265 231 225 223 227 229 233 235 239 243 246 247 250 246 252 260 260 260 254 263 260 265 262 254 262 260 259 253 251 259 259 255 250 249 246 246 242 242
295 290 284 271 299 263 252 254 259 261 250 229 227 231 228 256 246 238 241 244 247 249 251 251 253 260 265 254 258 259 258 260 260 261 256 257 257 256 257 256 263 259 258 251 245 245 240
295 280 276 269 255 260 252 251 256 258 261 232 231 230 234 232 235 239 243 244 247 248 251 252 251 252 257 258 256 265 266 259 261 266 260 257 258 257 257 259 268 264 256 252 250 247 242
284 274 270 261 254 256 252 250 250 252 254 252 232 233 233 233 236 237 240 243 245 247 246 244 254 257 263 254 262 259 258 257 262 262 265 262 261 256 258 262 260 260 260 255 249 246 244
283 279 269 266 253 247 249 252 248 248 253 249 247 237 235 234 238 247 237 268 242 244 248 250 253 259 260 261 257 256 260 263 263 260 264 267 262 259 262 263 266 268 258 251 244 242 242
299 285 279 273 258 251 249 251 247 245 247 258 246 247 239 241 236 236 240 243 249 253 252 251 253 255 259 261 261 258 258 260 261 261 265 268 266 263 263 263 270 259 247 245 245 249 243
295 293 292 287 277 265 250 252 248 247 247 244 257 248 241 243 241 238 238 241 240 241 242 248 251 254 256 261 261 257 256 258 259 261 261 266 267 263 263 268 276 264 254 247 248 246 249
308 315 297 287 286 278 267 256 249 250 246 243 242 245 250 244 239 242 241 247 247 248 249 252 255 256 255 258 259 259 257 259 260 260 263 264 264 264 269 273 274 268 254 249 245 245 241
322 312 306 300 289 269 270 258 255 252 247 245 240 240 242 249 247 247 246 240 244 246 249 255 255 253 256 252 255 259 259 256 259 262 264 266 267 267 269 271 274 269 257 252 248 248 245
307 302 304 292 283 286 270 260 258 254 252 247 242 239 239 240 247 244 243 244 245 260 249 253 260 261 256 254 254 256 259 260 262 264 265 267 267 270 272 273 275 268 258 256 255 252 249
307 306 307 297 278 272 267 264 255 247 248 243 243 242 242 238 240 249 249 259 258 257 263 255 258 263 261 255 252 255 257 258 262 265 267 267 270 270 271 272 274 264 258 256 253 252 250
314 315 303 292 283 274 262 245 247 250 246 241 240 240 239 239 238 241 240 255 257 253 257 256 263 267 261 253 253 258 261 262 264 268 270 272 272 274 275 272 267 264 262 259 254 254 251
322 312 308 289 284 281 279 240 223 239 242 245 242 240 237 237 237 238 243 248 251 249 259 257 270 267 253 250 255 258 262 270 271 277 276 274 274 272 271 270 268 264 260 259 256 258 256
322 320 304 283 298 293 258 238 215 197 215 238 242 241 238 240 241 241 237 241 252 251 260 259 270 253 251 255 257 261 266 278 278 278 277 279 277 274 270 255 252 246 247 248 246 244 241
329 327 308 79 312 280 255 263 204 190 209 215 230 235 239 236 240 242 244 247 252 254 264 265 253 246 254 258 264 268 278 280 280 281 281 277 241 231 234 241 235 238 237 236 234 230 228
335 327 127 198 208 213 223 255 186 172 191 204 216 222 232 235 238 238 240 246 251 254 261 251 246 246 256 262 277 283 279 286 286 245 97 62 144 253 237 248 245 240 236 228 228 225 221
337 323 206 208 219 206 236 176 176 184 198 214 214 220 226 227 232 236 241 244 248 248 242 231 239 252 260 276 293 297 295 334 117 144 113 96 46 359 333 294 244 247 226 226 221 211 179
339 223 208 230 205 174 156 169 182 173 167 197 205 203 222 224 229 234 234 235 234 225 211 227 242 256 275 295 311 305 305 30 37 111 97 83 63 23 309 276 250 250 205 196 190 146 150
338 253 250 218 169 147 145 165 159 153 157 178 190 205 222 220 204 215 219 215 208 196 211 226 245 270 286 317 167 111 93 80 93 99 89 92 91 94 96 93 99 111 123 135 145 160 165
335 323 230 166 152 154 154 156 157 162 172 180 186 204 217 208 198 197 194 188 185 198 209 229 250 263 311 146 128 279 120 112 109 107 109 104 104 97 104 112 116 128 132 148 154 170 163
332 327 163 160 162 157 155 162 151 165 168 161 181 186 212 170 176 177 173 179 186 196 211 220 256 238 329 147 20 148 153 129 126 123 125 124 118 125 126 135 114 148 128 152 163 149 166
335 236 175 167 157 151 156 155 159 162 152 155 158 162 170 166 170 160 176 177 187 200 194 222 203 207 312 20 132 201 241 172 138 135 131 138 241 133 140 133 128 132 124 122 141 172 179
336 203 173 162 159 154 162 154 153 161 157 151 160 161 161 163 164 181 175 180 195 179 190 211 188 194 224 48 185 175 166 214 154 198 210 143 158 150 168 156 149 134 139 155 165 164 176
337 214 186 178 170 165 161 164 169 157 152 156 159 160 159 163 173 213 173 190 194 173 187 188 181 181 160 106 172 181 225 178 158 160 159 156 171 162 169 165 175 157 172 176 186 196 210
337 185 189 185 176 169 168 167 162 157 166 160 160 159 163 171 171 175 182 193 188 179 185 183 182 184 172 153 168 175 226 125 175 180 160 169 198 160 138 182 172 176 159 182 186 177 185
334 256 194 185 172 177 173 164 165 167 162 161 159 160 167 174 174 179 193 180 180 180 184 185 188 180 178 163 155 116 204 169 192 231 195 168 170 208 167 135 86 192 200 159 188 190 185
331 207 191 192 187 181 175 172 166 163 164 162 162 167 172 173 176 189 201 179 181 187 185 188 192 186 193 175 170 189 162 179 139 212 202 186 196 191 201 197 154 133 204 171 183 192 192
326 222 189 188 190 191 181 175 170 166 166 162 171 173 174 176 189 187 196 182 182 190 186 188 191 190 188 189 182 177 180 205 170 164 149 222 180 211 212 217 223 170 183 212 199 203 206
324 307 191 189 194 186 185 180 170 250 175 168 173 176 181 180 186 185 187 182 184 192 186 191 189 192 188 194 208 188 183 178 181 178 174 190 212 200 205 209 201 203 204 211 219 219 210